Regional Weather Roundup
Issued by NWS Northern Indiana

Home | Current Version | Previous Version | Graphics & Text | Print | Product List | Glossary On
Versions: 1 2 3 4 5 6 7 8 9 10 11 12 13 14 15 16 17 18 19 20 21 22 23 24 25 26 27 28 29 30 31 32 33 34 35 36 37 38 39 40 41 42 43 44 45 46 47 48 49 50
000
ASUS43 KIWX 260200
RWRIWX

KIWX WEATHER ROUNDUP
NATIONAL WEATHER SERVICE NORTHERN INDIANA
900 PM EST SAT FEB 25 2017

NOTE: "FAIR" INDICATES FEW OR NO CLOUDS BELOW 12,000 FEET WITH NO
SIGNIFICANT WEATHER AND/OR OBSTRUCTIONS TO VISIBILITY.

* THESE STATIONS ARE NOT UNDER NWS QUALITY CONTROL. THEY ALSO MAY NOT
  REPORT WEATHER SUCH AS PRECIPITATION OR FOG.

INZ001>027-260300-
NORTHERN INDIANA

CITY           SKY/WX    TMP DP  RH WIND       PRES   REMARKS
GARY*          MOCLDY    27  14  59 W14       30.02R WCI  15
MICHIGAN CITY* CLOUDY    28  16  59 NW8       30.00R WCI  20
KNOX*          CLOUDY    28  -2  26 W13       30.00R WCI  18
SOUTH BEND     CLOUDY    25  16  68 W12       29.98R WCI  14
GOSHEN         CLOUDY    25  16  68 W12       29.98R WCI  14
ANGOLA*        CLOUDY    25  19  80 W9        29.94R WCI  15
FORT WAYNE     CLOUDY    27  18  69 W17       29.98R WCI  14
PERU/GRISSOM   CLOUDY    27  17  63 W20G28    29.99R WCI  14

$$
INZ028>050-260300-
CENTRAL INDIANA

CITY           SKY/WX    TMP DP  RH WIND       PRES   REMARKS
LAFAYETTE      CLEAR     26  17  68 W10       30.03S WCI  16
KOKOMO*        CLOUDY    28  20  71 W17       30.01R WCI  16
MUNCIE*        CLOUDY    29  17  61 W14       30.00R WCI  18
INDIANAPOLIS   MOCLDY    29  15  56 W10       30.03R WCI  20

$$
MIZ043>046-050>051-056>058-064>065-071>073-077>080-260300-
SOUTHWEST LOWER MICHIGAN

CITY           SKY/WX    TMP DP  RH WIND       PRES   REMARKS
BATTLE CREEK   LGT SNOW  22  17  81 W13       29.95R WCI  10
BENTON HARBOR  CLOUDY    26  15  63 W13       29.98R WCI  15
COLDWATER*     LGT SNOW  23  19  83 W9        29.95R WCI  13
HILLSDALE*     FLURRIES  21  16  79 W12       29.91R WCI   9
HOLLAND        CLOUDY    25  16  68 W13G20    29.95R WCI  14
GRAND RAPIDS   FLURRIES  23  17  78 W12       29.92R WCI  12
KALAMAZOO      LGT SNOW  23  14  68 W6        29.96R WCI  16
STURGIS*       LGT SNOW  23  20  87 W8        29.96R WCI  14
THREE RIVERS*  LGT SNOW  24  20  86 W8        29.97R WCI  14

$$
OHZ001>008-015>018-024>025-260300-
NORTHWEST OHIO

CITY           SKY/WX    TMP DP  RH WIND       PRES   REMARKS
DEFIANCE       CLOUDY    26  14  60 W10G16    29.97R WCI  16
FINDLAY        CLOUDY    28  18  66 W17       29.96R WCI  16
TOLEDO EXPRESS CLOUDY    26  18  71 W16       29.95R WCI  14
TOLEDO METCALF CLOUDY    28  17  63 W15       29.96R WCI  16
LIMA           CLOUDY    27  22  81 W15       29.97R WCI  15

$$
AND FOR LAKE MICHIGAN COASTAL AND OPEN LAKE BUOY OBSERVATIONS

STATION/POSITION TEMP    WIND        PRES    VSBY  WAVE
                 AIR SEA DIR/SP/G                  HT/PER
                 (F)     (DEG/KT/KT) (MB)    (MI)  (FT/S)
CALUMET HARBOR    25     270/  6/ 12 1015.5R
MICHIGAN CITY     27     250/ 17/ 19   N/A
BURNS HARBOR      27     280/ 15/ 19 1016.3R
SAINT JOSEPH      28     300/ 15/ 20 1015.6

$$
&&



USA.gov is the U.S. government's official web portal to all federal, state and local government web resources and services.